FW4175 Weather Reports


Display with metric or nautical units.
time (UTC)temp
F
wind
direction
speed
MPH
gust
MPH
rain 1hr
in
rain 24hr
in
rain mn
in
humidity
%
barometer
mb
20260905204734 79 0 3.0 12.0 0.00 0.00 0.00 86 1017.7
20260905204230 78 24 7.0 12.0 0.00 0.00 0.00 85 1017.8
20260905203729 79 290 3.0 10.0 0.00 0.00 0.00 87 1017.6
20260905203225 80 337 4.0 10.0 0.00 0.00 0.00 86 1017.7
20260905202720 80 296 2.0 14.0 0.00 0.00 0.00 86 1017.7
20260905202215 81 353 3.0 9.0 0.00 0.00 0.00 84 1017.6
20260905201710 81 297 3.0 7.0 0.00 0.00 0.00 83 1017.6
20260905201205 80 24 2.0 12.0 0.00 0.00 0.00 83 1017.9
20260905200700 80 10 4.0 7.0 0.00 0.00 0.00 83 1017.8
20260905200155 80 356 8.0 12.0 0.00 0.00 0.00 82 1018.0
20260905195654 81 266 1.0 6.0 0.00 0.00 0.00 82 1017.9
20260905195149 80 5 3.0 7.0 0.00 0.00 0.00 83 1017.7
20260905194644 80 337 3.0 8.0 0.00 0.00 0.00 83 1018.0
20260905194138 81 350 4.0 12.0 0.00 0.00 0.00 81 1018.0
20260905193632 80 329 7.0 9.0 0.00 0.00 0.00 82 1017.9
20260905193127 81 15 3.0 7.0 0.00 0.00 0.00 81 1018.0
20260905192623 80 294 3.0 6.0 0.00 0.00 0.00 84 1018.2
20260905192119 79 2 3.0 8.0 0.00 0.00 0.00 85 1018.1
20260905191618 80 0 3.0 12.0 0.00 0.00 0.00 83 1018.2
20260905191117 79 302 2.0 7.0 0.00 0.00 0.00 85 1018.0
20260905190615 78 255 4.0 8.0 0.00 0.00 0.00 88 1018.1
20260905190114 78 348 4.0 10.0 0.00 0.00 0.00 86 1018.5
20260905185613 78 341 3.0 7.0 0.00 0.00 0.00 87 1018.4
20260905185108 78 309 4.0 13.0 0.00 0.00 0.00 88 1018.4
20260905184603 78 342 6.0 11.0 0.00 0.00 0.00 88 1018.5
20260905184102 78 352 4.0 6.0 0.00 0.00 0.00 88 1018.5
20260905183601 78 308 2.0 8.0 0.00 0.00 0.00 88 1018.2
20260905183057 78 54 3.0 12.0 0.00 0.00 0.00 86 1018.4
20260905182556 78 340 4.0 6.0 0.00 0.00 0.00 88 1018.5
20260905182050 78 313 4.0 8.0 0.00 0.00 0.00 89 1018.6
20260905181545 77 24 4.0 5.0 0.00 0.00 0.00 91 1018.4
20260905181044 76 351 2.0 10.0 0.00 0.00 0.00 91 1018.3
20260905180539 76 351 6.0 10.0 0.00 0.00 0.00 90 1018.5
20260905180035 76 273 5.0 8.0 0.00 0.00 0.00 91 1018.6
20260905175533 76 341 4.0 8.0 0.00 0.00 0.00 92 1018.4
20260905175030 76 9 13.0 13.0 0.00 0.00 0.00 91 1018.6
20260905174525 76 300 5.0 11.0 0.00 0.00 0.00 92 1018.1
20260905174020 76 1 6.0 10.0 0.00 0.00 0.00 91 1018.3
20260905173517 76 343 7.0 12.0 0.00 0.00 0.00 92 1018.5
20260905173012 76 320 4.0 10.0 0.00 0.00 0.00 93 1018.4
20260905172510 76 17 3.0 7.0 0.00 0.00 0.00 93 1018.6
20260905172006 76 358 3.0 5.0 0.00 0.00 0.00 93 1018.5
20260905171502 76 302 2.0 7.0 0.00 0.00 0.00 92 1018.4
20260905170958 76 283 0.0 3.0 0.00 0.00 0.00 93 1018.7
20260905170454 75 238 0.0 4.0 0.00 0.00 0.00 94 1018.7
20260905165953 75 353 3.0 7.0 0.00 0.00 0.00 94 1018.6
20260905165449 75 349 3.0 11.0 0.00 0.00 0.00 93 1018.7
20260905164944 75 324 2.0 8.0 0.00 0.00 0.00 93 1018.6
20260905164438 75 284 2.0 5.0 0.00 0.00 0.00 94 1018.6
20260905163933 75 309 3.0 7.0 0.00 0.00 0.00 94 1018.7
20260905163430 74 348 4.0 9.0 0.00 0.00 0.00 94 1018.5
20260905162925 75 354 4.0 9.0 0.00 0.00 0.00 94 1018.6
20260905162420 75 5 5.0 7.0 0.00 0.00 0.00 94 1018.7
20260905161916 75 317 3.0 9.0 0.00 0.00 0.00 94 1018.5
20260905161415 75 336 5.0 10.0 0.00 0.00 0.00 94 1018.7
20260905160912 75 344 1.0 8.0 0.00 0.00 0.00 94 1018.7
20260905160406 74 324 5.0 6.0 0.00 0.00 0.00 95 1018.5
20260905155900 73 8 11.0 11.0 0.00 0.00 0.00 96 1018.6
20260905155355 73 11 3.0 7.0 0.00 0.00 0.00 96 1018.5
20260905154854 73 343 14.0 14.0 0.00 0.00 0.00 96 1018.4
20260905154350 74 358 5.0 13.0 0.00 0.00 0.00 96 1018.5
20260905153845 74 330 3.0 8.0 0.00 0.00 0.00 96 1018.1
20260905153342 74 351 2.0 10.0 0.00 0.00 0.00 96 1018.3
20260905152841 74 12 3.0 6.0 0.00 0.00 0.00 95 1018.2
20260905152340 74 344 4.0 10.0 0.00 0.00 0.00 95 1018.1
20260905151835 75 12 5.0 8.0 0.00 0.00 0.00 95 1018.0
20260905151331 74 315 3.0 5.0 0.00 0.00 0.00 95 1018.2
20260905150825 74 17 2.0 7.0 0.00 0.00 0.00 96 1018.2
20260905150319 74 338 2.0 7.0 0.00 0.00 0.00 96 1018.1
20260905145817 74 19 4.0 8.0 0.00 0.00 0.00 97 1018.0
20260905145317 73 31 6.0 7.0 0.00 0.00 0.00 97 1018.0
20260905144815 74 321 2.0 8.0 0.00 0.00 0.00 97 1018.0
20260905144312 74 62 3.0 4.0 0.00 0.00 0.00 98 1017.8
20260905143810 73 11 4.0 10.0 0.00 0.00 0.00 98 1018.1
20260905143305 73 358 0.0 5.0 0.00 0.00 0.00 98 1018.0
20260905142803 73 45 3.0 8.0 0.00 0.00 0.00 98 1017.9
20260905142258 73 18 5.0 8.0 0.00 0.00 0.00 98 1017.7
20260905141754 73 354 3.0 6.0 0.00 0.00 0.00 98 1017.7
20260905141249 73 358 3.0 10.0 0.00 0.00 0.00 99 1017.9
20260905140744 73 215 0.0 7.0 0.00 0.00 0.00 99 1017.7
20260905140239 73 6 5.0 7.0 0.00 0.00 0.00 99 1017.5
20260905135738 73 348 5.0 7.0 0.00 0.00 0.00 99 1017.5
20260905135234 73 336 2.0 7.0 0.00 0.00 0.00 99 1017.8
20260905134733 72 335 5.0 8.0 0.00 0.00 0.00 99 1017.5
20260905134232 72 1 3.0 9.0 0.00 0.00 0.00 99 1017.5
20260905133728 72 299 2.0 9.0 0.00 0.00 0.00 99 1017.8
20260905133223 72 343 4.0 10.0 0.00 0.00 0.00 99 1017.7
20260905132721 72 0 3.0 6.0 0.00 0.00 0.00 99 1017.6
20260905132218 72 346 4.0 7.0 0.00 0.00 0.00 99 1017.9
20260905131713 72 10 2.0 6.0 0.00 0.00 0.00 99 1017.8
20260905131208 72 352 5.0 8.0 0.00 0.00 0.00 99 1017.7
20260905130702 72 349 4.0 6.0 0.00 0.00 0.00 99 1017.6
20260905130202 72 357 5.0 7.0 0.00 0.00 0.00 99 1017.5
20260905125656 72 333 3.0 8.0 0.00 0.00 0.00 99 1017.4
20260905125152 72 34 7.0 7.0 0.00 0.00 0.00 99 1017.3
20260905124648 72 356 4.0 8.0 0.00 0.00 0.00 99 1017.3
20260905124143 72 286 2.0 7.0 0.00 0.00 0.00 99 1016.9
20260905123633 71 357 7.0 9.0 0.00 0.00 0.00 99 1017.1
20260905123130 71 351 3.0 10.0 0.00 0.00 0.00 99 1017.1
20260905122630 71 348 3.0 6.0 0.00 0.00 0.00 99 1016.9
20260905122124 71 352 3.0 7.0 0.00 0.00 0.00 99 1016.9
20260905121619 71 267 3.0 7.0 0.00 0.00 0.00 99 1016.7
20260905121115 71 111 0.0 4.0 0.00 0.00 0.00 99 1016.4
20260905120614 71 47 0.0 3.0 0.00 0.00 0.00 99 1016.4
20260905120109 71 329 3.0 5.0 0.00 0.00 0.00 99 1016.4
20260905115608 71 339 4.0 7.0 0.00 0.00 0.00 99 1016.6
20260905115103 71 353 1.0 5.0 0.00 0.00 0.00 99 1016.6
20260905114602 71 343 4.0 5.0 0.00 0.00 0.00 99 1016.7
20260905114101 71 337 3.0 7.0 0.00 0.00 0.00 99 1016.1
20260905113556 71 20 4.0 8.0 0.00 0.00 0.00 99 1016.0
20260905113052 70 348 3.0 5.0 0.00 0.00 0.00 99 1016.1
20260905112547 70 348 4.0 7.0 0.00 0.00 0.00 99 1016.4
20260905112042 70 351 2.0 8.0 0.00 0.00 0.00 99 1016.0
20260905111537 70 333 3.0 5.0 0.00 0.00 0.00 99 1016.0
20260905111036 70 358 2.0 8.0 0.00 0.00 0.00 99 1015.9
20260905110535 70 359 2.0 7.0 0.00 0.00 0.00 99 1015.9
20260905110031 70 316 2.0 6.0 0.00 0.00 0.00 99 1015.8
20260905105531 70 310 2.0 4.0 0.00 0.00 0.00 99 1015.7
20260905105030 70 338 2.0 4.0 0.00 0.00 0.00 99 1015.7
20260905104526 70 333 1.0 4.0 0.00 0.00 0.00 99 1015.9
20260905104026 70 329 3.0 6.0 0.00 0.00 0.00 99 1015.7
20260905103521 70 20 2.0 5.0 0.00 0.00 0.00 99 1015.8
20260905103017 70 342 2.0 4.0 0.00 0.00 0.00 99 1015.9
20260905102512 70 324 3.0 4.0 0.00 0.00 0.00 99 1015.8
20260905102009 70 11 2.0 3.0 0.00 0.00 0.00 99 1016.0
20260905101507 70 304 0.0 3.0 0.00 0.00 0.00 99 1015.7
20260905101006 70 354 0.0 3.0 0.00 0.00 0.00 99 1015.7
20260905100502 70 23 1.0 2.0 0.00 0.00 0.00 99 1015.7
20260905100001 70 341 2.0 3.0 0.00 0.00 0.00 99 1015.6
20260905095456 70 30 2.0 3.0 0.00 0.00 0.00 99 1015.8
20260905094952 70 235 0.0 2.0 0.00 0.00 0.00 99 1015.6
20260905094447 70 30 1.0 3.0 0.00 0.00 0.00 99 1015.7
20260905093945 70 359 2.0 3.0 0.00 0.00 0.00 99 1015.7
20260905093441 70 355 1.0 2.0 0.00 0.00 0.00 99 1015.6
20260905092936 70 15 0.0 3.0 0.00 0.00 0.00 99 1015.9
20260905092432 70 30 1.0 1.0 0.00 0.00 0.00 99 1015.6
20260905091926 70 1 1.0 3.0 0.00 0.00 0.00 99 1015.8
20260905091421 70 344 2.0 4.0 0.00 0.00 0.00 99 1015.6
20260905090920 71 29 0.0 3.0 0.00 0.00 0.00 99 1015.7
20260905090416 71 202 2.0 4.0 0.00 0.00 0.00 99 1015.6
20260905085915 71 355 0.0 3.0 0.00 0.00 0.00 99 1015.6
20260905085414 71 353 2.0 3.0 0.00 0.00 0.00 99 1015.6
20260905084911 71 37 0.0 2.0 0.00 0.00 0.00 99 1015.6
20260905084409 71 339 2.0 4.0 0.02 0.00 0.00 99 1015.6
20260905083904 71 321 1.0 3.0 0.02 0.00 0.00 99 1015.5
20260905083400 72 344 4.0 5.0 0.00 0.00 0.00 99 1015.4
20260905082856 72 344 3.0 4.0 0.00 0.00 0.00 99 1015.4
20260905082352 72 24 2.0 4.0 0.00 0.00 0.00 99 1015.0
20260905081847 72 5 0.0 2.0 0.00 0.00 0.00 99 1015.1
20260905081342 72 6 0.0 0.0 0.00 0.00 0.00 99 1015.2
20260905080840 72 6 0.0 2.0 0.00 0.00 0.00 99 1015.2
20260905080335 72 37 0.0 0.0 0.00 0.00 0.00 99 1015.1
20260905075833 72 36 0.0 2.0 0.00 0.00 0.00 99 1014.9
20260905075328 72 223 0.0 3.0 0.00 0.00 0.00 99 1015.2
20260905074827 72 179 1.0 3.0 0.00 0.00 0.00 99 1015.1
20260905074323 71 162 2.0 3.0 0.00 0.00 0.00 99 1015.2
20260905073818 71 160 1.0 2.0 0.00 0.00 0.00 99 1015.3
20260905073313 71 180 0.0 0.0 0.00 0.00 0.00 99 1015.3
20260905072808 72 206 0.0 2.0 0.00 0.00 0.00 99 1015.4
20260905072305 72 221 0.0 2.0 0.00 0.00 0.00 99 1015.2
20260905071800 72 254 1.0 2.0 0.00 0.00 0.00 99 1015.3
20260905071255 72 173 1.0 2.0 0.00 0.00 0.00 99 1015.5
20260905070750 72 339 0.0 2.0 0.00 0.00 0.00 99 1015.3
20260905070246 72 240 0.0 2.0 0.00 0.00 0.00 99 1015.5
20260905065745 72 338 2.0 4.0 0.00 0.00 0.00 99 1015.7
20260905065239 72 229 0.0 2.0 0.00 0.00 0.00 99 1015.7
20260905064734 72 164 0.0 0.0 0.00 0.00 0.00 99 1015.4
20260905064230 72 161 0.0 1.0 0.00 0.00 0.00 99 1015.5
20260905063728 72 142 0.0 2.0 0.00 0.00 0.00 99 1015.5
20260905063224 72 230 0.0 1.0 0.00 0.00 0.00 99 1015.6
20260905062719 72 302 0.0 2.0 0.00 0.00 0.00 99 1015.5
20260905062214 72 142 0.0 0.0 0.00 0.00 0.00 99 1015.6
20260905061714 72 142 0.0 1.0 0.00 0.00 0.00 99 1015.6
20260905061208 72 315 0.0 0.0 0.00 0.00 0.00 99 1015.5
20260905060703 72 352 0.0 2.0 0.00 0.00 0.00 99 1015.6
20260905060200 72 129 0.0 0.0 0.00 0.00 0.00 99 1015.8
20260905055658 72 129 0.0 0.0 0.00 0.00 0.00 99 1015.8
20260905055154 72 142 0.0 1.0 0.00 0.00 0.00 99 1015.7
20260905054649 73 129 0.0 1.0 0.00 0.00 0.00 99 1015.7
20260905054145 73 25 0.0 2.0 0.00 0.00 0.00 99 1015.7
20260905053644 73 352 1.0 2.0 0.00 0.00 0.00 99 1015.8
20260905053140 73 342 1.0 2.0 0.00 0.00 0.00 99 1015.9
20260905052639 73 15 0.0 1.0 0.00 0.00 0.00 99 1015.7
20260905052134 73 141 0.0 0.0 0.00 0.00 0.00 99 1015.9
20260905051629 73 131 0.0 1.0 0.00 0.00 0.00 99 1015.7
20260905051125 73 66 0.0 0.0 0.00 0.00 0.00 99 1015.7
20260905050616 73 66 0.0 1.0 0.00 0.00 0.00 99 1015.8
20260905050113 73 309 0.0 2.0 0.00 0.00 0.00 99 1015.9
20260905045612 73 309 0.0 0.0 0.00 0.03 0.03 99 1015.9
20260905045108 73 205 0.0 0.0 0.00 0.03 0.03 99 1015.7
20260905044608 73 205 0.0 2.0 0.00 0.03 0.03 99 1015.8
20260905044103 73 326 0.0 2.0 0.00 0.03 0.03 99 1016.0
20260905043601 73 346 2.0 2.0 0.00 0.03 0.03 99 1015.8
20260905043057 73 333 0.0 2.0 0.00 0.03 0.03 99 1016.0
20260905042555 73 344 1.0 2.0 0.00 0.03 0.03 99 1015.9
20260905042051 73 336 0.0 2.0 0.00 0.03 0.03 99 1016.1
20260905041546 73 336 0.0 0.0 0.00 0.03 0.03 99 1015.9
20260905041042 73 89 0.0 0.0 0.00 0.03 0.03 99 1015.9
20260905040541 73 89 0.0 1.0 0.00 0.03 0.03 99 1015.6
20260905040040 73 322 0.0 1.0 0.00 0.03 0.03 99 1016.2
20260905035535 73 196 0.0 2.0 0.00 0.03 0.03 99 1016.2
20260905035032 74 343 0.0 2.0 0.00 0.03 0.03 99 1016.2
20260905034527 74 352 0.0 2.0 0.00 0.03 0.03 99 1016.4
20260905034021 74 339 0.0 2.0 0.00 0.03 0.03 99 1016.3
20260905033515 74 37 0.0 1.0 0.00 0.03 0.03 99 1016.4
20260905033011 74 44 0.0 0.0 0.00 0.03 0.03 99 1016.4
20260905032506 74 32 0.0 2.0 0.00 0.03 0.03 99 1016.7
20260905032001 74 241 0.0 1.0 0.00 0.03 0.03 98 1016.4
20260905031456 75 146 4.0 6.0 0.07 0.03 0.03 98 1016.2
20260905030951 75 344 1.0 4.0 0.14 0.03 0.03 97 1016.1
20260905030446 75 55 2.0 4.0 0.07 0.02 0.02 97 1016.2
20260905025939 75 222 0.0 2.0 0.00 0.00 0.00 96 1016.2
20260905025435 75 14 1.0 3.0 0.00 0.00 0.00 96 1016.2
20260905024932 75 13 3.0 4.0 0.00 0.00 0.00 96 1016.7
20260905024431 75 62 0.0 4.0 0.00 0.00 0.00 96 1016.3
20260905023926 75 23 4.0 6.0 0.00 0.00 0.00 95 1016.2
20260905023421 75 44 2.0 5.0 0.00 0.00 0.00 95 1016.2
20260905022921 75 15 0.0 2.0 0.00 0.00 0.00 95 1016.4
20260905022416 75 50 3.0 5.0 0.00 0.00 0.00 95 1016.3
20260905021911 75 342 6.0 7.0 0.00 0.00 0.00 95 1016.7
20260905021406 75 328 3.0 5.0 0.00 0.00 0.00 95 1016.3
20260905020901 76 7 0.0 4.0 0.00 0.00 0.00 94 1016.2
20260905020400 76 82 3.0 5.0 0.00 0.00 0.00 94 1016.3
20260905015855 76 28 2.0 4.0 0.00 0.00 0.00 94 1016.1
20260905015354 76 40 4.0 9.0 0.00 0.00 0.00 93 1016.2
20260905014853 76 22 4.0 9.0 0.00 0.00 0.00 93 1016.3
20260905014349 76 29 4.0 9.0 0.00 0.00 0.00 92 1016.1
20260905013844 76 347 4.0 7.0 0.00 0.00 0.00 92 1016.3
20260905013340 77 344 4.0 7.0 0.00 0.00 0.00 92 1016.4
20260905012835 77 4 3.0 9.0 0.00 0.00 0.00 91 1016.2
20260905012331 77 330 4.0 6.0 0.00 0.00 0.00 91 1015.9
20260905011828 77 331 3.0 6.0 0.00 0.00 0.00 90 1015.9
20260905011328 78 8 1.0 5.0 0.00 0.00 0.00 89 1016.0
20260905010823 78 20 3.0 7.0 0.00 0.00 0.00 89 1015.9
20260905010318 78 4 4.0 6.0 0.00 0.00 0.00 89 1015.6
20260905005815 78 15 3.0 6.0 0.00 0.00 0.00 88 1015.5
20260905005310 79 29 3.0 4.0 0.00 0.00 0.00 88 1015.4
20260905004804 79 24 2.0 8.0 0.00 0.00 0.00 88 1015.1
20260905004259 80 341 3.0 8.0 0.00 0.00 0.00 87 1014.9
20260905003754 80 28 5.0 6.0 0.00 0.00 0.00 87 1015.0
20260905003250 81 17 3.0 7.0 0.00 0.00 0.00 86 1015.0
20260905002746 83 7 1.0 5.0 0.00 0.00 0.00 85 1015.1
20260905002245 84 50 3.0 4.0 0.00 0.00 0.00 84 1014.7
20260905001741 83 54 2.0 2.0 0.00 0.00 0.00 86 1015.1
20260905001240 83 326 0.0 2.0 0.00 0.00 0.00 87 1015.4
20260905000736 83 320 1.0 3.0 0.00 0.00 0.00 87 1015.3
20260905000233 84 5 0.0 2.0 0.00 0.00 0.00 86 1015.0
20260904235726 85 346 1.0 2.0 0.00 0.00 0.00 84 1015.0
20260904235221 85 335 0.0 2.0 0.00 0.00 0.00 83 1014.9
20260904234715 86 333 1.0 2.0 0.00 0.00 0.00 81 1014.7
20260904234211 86 212 0.0 0.0 0.00 0.00 0.00 79 1014.7
20260904233707 87 212 0.0 2.0 0.00 0.00 0.00 78 1014.4
20260904233202 87 217 0.0 3.0 0.00 0.00 0.00 77 1014.5
20260904232659 88 235 0.0 3.0 0.00 0.00 0.00 77 1014.5
20260904232155 88 241 2.0 5.0 0.00 0.00 0.00 76 1014.5
20260904231650 89 175 2.0 3.0 0.00 0.00 0.00 75 1014.3
20260904231145 89 182 3.0 4.0 0.00 0.00 0.00 73 1014.5
20260904230644 89 230 6.0 9.0 0.00 0.00 0.00 73 1014.6
20260904230140 89 196 2.0 7.0 0.00 0.00 0.00 73 1014.5
20260904225638 89 193 3.0 10.0 0.00 0.00 0.00 72 1014.5
20260904225133 90 204 1.0 8.0 0.00 0.00 0.00 72 1014.2
20260904224627 90 158 2.0 9.0 0.00 0.00 0.00 72 1014.6
20260904224122 90 190 2.0 6.0 0.00 0.00 0.00 71 1014.5
20260904223621 90 155 5.0 6.0 0.00 0.00 0.00 70 1014.4
20260904223116 90 147 2.0 9.0 0.00 0.00 0.00 71 1014.6
20260904222613 90 142 7.0 10.0 0.00 0.00 0.00 70 1014.5
20260904222108 90 199 2.0 9.0 0.00 0.00 0.00 70 1014.5
20260904221608 90 206 6.0 13.0 0.00 0.00 0.00 70 1014.6
20260904221108 90 174 3.0 9.0 0.00 0.00 0.00 69 1014.3
20260904220602 90 140 6.0 13.0 0.00 0.00 0.00 69 1014.5
20260904220058 91 170 3.0 9.0 0.00 0.00 0.00 69 1014.4
20260904215551 90 209 5.0 9.0 0.00 0.00 0.00 68 1014.2
20260904215047 90 213 5.0 10.0 0.00 0.00 0.00 70 1014.4
20260904214542 90 180 4.0 9.0 0.00 0.00 0.00 70 1014.5
20260904214033 89 181 5.0 10.0 0.00 0.00 0.00 70 1014.3
20260904213531 88 182 4.0 11.0 0.00 0.00 0.00 72 1014.7
20260904213028 88 218 5.0 8.0 0.00 0.00 0.00 72 1014.6
20260904212526 88 189 7.0 8.0 0.00 0.00 0.00 70 1014.6
20260904212022 88 207 7.0 10.0 0.00 0.00 0.00 71 1014.5
20260904211522 89 159 4.0 8.0 0.00 0.00 0.00 70 1014.4
20260904211017 88 218 9.0 14.0 0.00 0.00 0.00 70 1014.2
20260904210517 88 164 4.0 10.0 0.00 0.00 0.00 71 1014.4
20260904210013 89 180 5.0 11.0 0.00 0.00 0.00 69 1014.2
20260904205508 89 184 3.0 16.0 0.00 0.00 0.00 69 1014.4